RH
70 77 81 70 76 80 85 93 86 74 67 75 86 88 90 93 91 89 81 81 78 74 67 77 84 94 95 93 96 95 87 84 82 74 67 61 62 87 88 85 83 80 71
59 73 70 77 84 83 97 96 88 79 74 81 83 84 86 81 86 86 80 77 78 76 70 75 85 88 92 96 96 94 95 96 88 73 67 65 57 65 92 79 76 77 78
58 71 76 83 84 87 97 97 83 74 84 82 84 92 88 70 78 80 78 78 75 72 75 77 78 79 84 88 88 91 92 92 90 78 70 62 67 71 88 84 86 76 84
58 73 77 81 87 89 96 90 80 82 77 78 76 84 76 72 73 66 65 65 71 72 75 69 63 52 56 68 70 81 85 85 89 83 75 74 74 71 83 79 84 79 87
65 75 78 79 89 89 94 85 82 84 80 77 75 72 70 75 72 70 71 64 64 72 71 68 63 67 73 70 80 90 88 84 82 71 61 62 65 65 76 72 71 79 76
70 76 81 86 86 84 88 84 84 87 87 80 85 73 72 76 82 77 77 73 70 71 68 65 71 82 79 82 90 95 89 84 83 80 73 68 65 56 65 84 81 72 76
73 77 75 76 78 85 85 83 82 88 88 83 81 76 71 76 77 78 77 81 75 75 76 76 85 94 96 95 92 92 92 85 87 83 72 73 74 75 86 84 82 75 77
59 72 74 77 80 82 81 80 81 83 83 79 80 82 84 72 68 77 82 82 79 79 83 87 94 96 95 94 95 94 79 73 71 70 73 75 76 77 98 95 88 85 82
61 70 73 76 82 82 85 77 77 73 80 74 74 83 90 71 68 72 87 87 85 82 76 80 88 89 84 83 82 82 82 80 80 80 78 79 80 80 99 97 96 93 88
71 69 75 81 83 82 88 78 75 73 78 78 78 78 77 69 67 69 78 78 68 70 75 80 81 81 81 81 82 84 84 76 74 75 79 78 78 82 97 96 96 95 94
82 74 79 83 81 84 89 80 77 77 78 82 81 83 78 68 56 68 69 71 74 79 83 84 86 87 84 82 80 79 76 70 66 67 74 76 77 92 91 89 91 92 89
86 84 85 85 82 87 91 82 80 79 85 81 85 80 70 59 65 75 77 76 79 82 84 86 86 83 77 70 69 61 54 52 50 54 63 70 66 71 74 74 84 83 81
73 80 82 84 86 90 92 85 84 84 82 84 87 80 74 72 74 76 80 82 83 84 88 88 75 57 53 52 48 44 42 43 44 43 43 44 49 70 70 72 74 86 88
62 74 79 84 86 89 90 85 82 87 85 86 83 79 79 79 80 83 85 74 74 77 81 58 51 49 45 38 35 32 32 32 33 40 40 44 64 68 68 74 75 71 70
54 51 62 79 85 84 90 82 84 86 84 83 84 82 83 82 84 85 75 77 63 53 52 49 43 39 33 27 23 22 23 21 34 42 41 40 36 62 72 64 62 63 63
30 30 38 60 76 80 82 81 80 84 86 87 86 88 82 78 82 78 70 56 51 47 44 37 29 24 20 19 18 21 20 38 32 27 37 31 30 40 58 59 56 56 64
26 27 29 42 67 79 80 84 90 88 88 84 77 82 86 88 82 64 57 52 41 34 26 20 18 18 18 16 15 20 18 34 19 27 25 23 23 24 30 53 52 55 55
27 34 35 48 69 79 86 93 96 90 88 80 81 87 86 76 65 59 52 33 24 20 19 18 17 17 16 14 13 15 17 39 22 19 22 19 21 24 24 22 33 45 50
34 38 51 70 77 85 95 94 88 89 88 84 86 79 68 64 52 43 25 22 22 21 18 16 15 15 16 12 12 12 20 44 30 22 18 20 19 21 22 20 15 15 30
48 50 65 84 86 92 96 93 90 87 83 80 69 61 55 49 26 24 26 25 22 19 16 14 13 14 17 15 14 12 25 43 37 29 23 22 19 25 21 19 17 15 21
59 71 85 92 97 94 94 89 82 75 76 66 54 51 31 24 26 28 28 24 20 17 15 14 12 12 16 20 21 17 22 26 27 30 14 21 23 20 16 20 16 16 17
63 80 95 95 98 93 88 85 81 73 53 50 36 26 24 26 28 28 27 23 18 16 14 13 13 14 18 28 26 48 55 29 22 16 21 20 15 20 16 18 18 14 23
70 84 98 98 92 88 86 76 66 50 37 29 26 26 26 27 27 27 24 21 18 16 15 16 16 16 21 20 38 28 38 49 58 29 20 23 26 27 27 27 22 24 25
73 80 94 94 88 86 76 69 62 41 32 27 26 26 26 26 25 23 22 20 17 15 15 15 17 19 22 27 24 24 27 34 52 58 33 27 33 32 33 29 28 27 26
80 87 90 86 84 77 69 68 56 40 28 26 26 26 25 24 23 22 21 18 16 15 14 14 16 20 23 27 29 32 32 32 41 64 46 44 37 36 36 34 32 33 31
91 87 85 82 77 68 66 60 58 37 27 27 27 27 25 23 23 22 20 17 15 14 14 16 18 22 25 27 29 31 34 39 44 48 58 45 46 41 43 40 36 34 36
Wind_Speed
12 23 20 16 16 16 14 13 10 8 5 4 5 7 9 10 10 8 5 5 4 5 3 2 5 10 7 5 7 4 1 2 5 10 15 11 6 4 3 5 7 7 5
19 23 22 17 17 16 15 13 10 7 5 5 6 9 10 8 8 8 6 5 3 4 5 2 3 5 6 7 4 2 2 3 7 9 11 9 5 4 3 3 3 7 5
21 25 23 19 17 16 15 13 10 7 7 8 8 9 10 6 7 5 5 3 1 4 6 5 1 1 1 2 1 2 3 5 6 7 9 6 5 5 6 4 6 6 6
21 25 24 20 18 16 15 12 9 7 7 8 8 7 8 5 6 4 5 3 2 2 5 5 4 2 1 3 3 4 4 5 7 8 9 7 6 6 5 5 8 6 6
22 24 22 21 19 17 14 11 9 8 8 9 9 8 6 8 8 6 6 3 1 1 4 5 5 4 4 3 3 4 4 4 6 8 7 7 9 7 5 5 6 8 9
22 22 21 20 19 16 14 12 9 8 8 9 8 9 7 8 9 9 9 5 3 0 2 3 4 4 4 4 4 4 5 6 7 7 8 8 8 8 8 8 9 10 10
21 20 20 20 18 17 14 13 10 9 8 7 9 9 8 5 2 6 10 6 4 2 2 3 4 5 5 6 7 7 6 5 8 10 10 9 9 9 9 10 10 11 12
19 19 19 20 18 17 14 13 11 9 7 5 8 9 8 6 2 2 8 7 4 3 3 4 5 6 7 7 7 7 7 8 9 10 10 10 10 10 10 10 12 13 13
17 19 19 19 19 17 17 14 12 9 8 5 4 8 8 6 4 2 4 4 3 2 4 6 7 6 6 6 7 7 9 9 11 11 11 12 12 12 11 12 12 13 14
16 19 19 19 20 19 19 15 12 11 8 8 5 6 7 7 6 3 3 3 1 2 3 4 5 6 6 7 9 10 10 10 13 13 12 12 13 13 13 14 15 14 15
17 20 20 20 20 20 20 17 14 13 11 11 7 5 5 5 6 4 2 2 0 1 3 4 6 7 7 7 8 8 8 8 8 9 10 10 10 11 13 14 14 15 17
20 23 22 22 21 21 21 18 16 15 14 11 9 6 3 5 5 3 2 1 1 2 4 5 6 7 6 6 6 7 8 8 9 9 8 7 8 9 11 13 13 14 14
21 22 25 25 23 22 22 19 18 16 13 12 10 8 6 5 4 4 2 1 3 3 4 3 2 3 5 6 7 8 8 9 9 9 8 8 7 8 7 8 8 9 14
18 21 23 26 24 23 23 20 19 17 14 12 10 10 7 5 4 3 2 1 2 2 1 3 4 6 7 9 9 10 10 11 10 8 7 6 7 10 9 9 11 12 14
20 22 24 27 27 24 24 21 19 17 14 12 12 10 7 6 5 4 3 2 3 4 4 5 6 7 9 10 11 11 11 10 6 5 6 7 8 12 13 13 13 14 14
25 26 26 28 29 26 25 22 20 18 14 12 11 10 8 7 5 5 5 3 3 4 5 7 8 9 11 12 12 10 10 6 6 6 6 7 8 8 15 15 14 15 14
25 26 26 28 30 28 26 22 20 18 16 13 11 11 9 8 9 6 4 5 6 6 7 8 9 10 12 13 12 9 10 5 9 8 8 7 8 8 9 14 16 15 16
18 18 16 23 29 29 27 23 22 18 18 15 13 12 10 10 8 6 5 6 7 8 9 11 13 14 15 16 15 12 11 5 6 9 9 8 11 10 10 14 17 16 17
15 15 15 22 28 29 26 25 22 20 19 17 17 17 15 8 7 7 8 9 8 9 11 12 13 14 16 20 17 15 10 6 2 6 9 9 11 12 11 15 18 18 17
12 12 17 22 28 30 30 25 23 23 22 20 19 17 15 12 12 11 11 9 8 9 12 12 12 15 16 21 15 18 5 4 4 5 10 13 11 13 16 18 23 22 19
12 17 22 27 31 35 32 30 26 24 22 20 18 17 17 16 14 11 10 10 10 12 13 13 13 15 17 22 13 16 4 4 9 7 19 13 12 16 23 22 27 25 23
16 20 25 30 34 34 33 29 30 28 22 22 21 20 18 16 13 11 10 11 11 11 12 14 15 13 12 17 12 4 4 6 5 17 14 12 22 17 27 30 28 30 23
18 23 27 32 33 33 32 29 30 26 26 23 22 21 17 14 12 10 10 10 11 11 13 13 13 14 12 12 11 7 3 2 7 5 13 14 15 20 25 28 31 23 22
23 22 27 32 34 33 33 33 35 28 23 24 24 21 18 13 12 10 10 9 10 10 11 11 11 12 10 10 6 10 5 6 3 5 4 22 7 28 25 30 23 27 29
23 26 28 31 34 34 33 34 34 32 26 28 24 22 17 14 11 10 9 9 9 9 9 9 9 10 10 8 8 7 6 9 6 3 8 7 24 23 27 20 33 21 24
24 27 30 34 34 35 34 35 33 34 32 30 25 22 17 14 11 9 7 7 8 7 7 8 8 9 10 10 9 7 7 4 6 4 4 12 15 18 27 28 18 23 22
Wind_Direction
174 165 168 176 169 170 164 158 155 153 153 147 152 161 164 158 142 147 130 116 76 25 35 29 20 38 103 141 143 136 193 327 346 341 332 336 333 324 277 255 261 263 282
167 169 164 178 176 173 166 162 164 161 156 137 148 154 148 145 133 125 123 108 88 38 31 358 32 38 42 59 78 82 21 321 313 334 342 341 352 350 312 291 243 264 258
168 169 174 175 179 174 167 168 168 166 156 145 150 158 145 138 146 126 131 127 66 29 19 29 41 29 360 2 22 11 6 353 323 323 335 348 349 346 322 276 261 280 277
166 171 177 178 180 177 172 174 172 164 157 151 146 159 152 161 136 125 164 137 146 23 17 34 55 52 289 272 302 306 319 316 313 312 308 317 317 329 324 284 248 277 277
170 172 176 180 180 177 179 178 173 168 160 157 150 155 171 191 187 191 182 180 66 25 17 46 54 50 37 24 354 344 336 329 304 312 314 302 301 306 306 296 269 268 277
173 173 176 180 184 188 185 183 179 174 172 174 176 181 194 201 210 221 220 220 212 274 8 35 41 24 15 342 323 316 326 330 322 320 317 316 313 303 282 283 273 272 272
176 175 177 177 183 191 193 188 182 179 177 180 190 200 200 198 249 239 215 208 220 242 324 347 347 337 340 337 325 314 312 294 295 308 314 317 316 308 289 278 265 268 263
181 179 180 181 186 193 198 191 188 183 175 175 187 198 207 223 284 50 191 208 218 244 315 321 322 332 327 325 325 322 328 321 313 315 317 318 318 311 293 280 268 265 268
188 185 186 188 191 198 197 197 193 186 184 213 185 196 209 221 239 93 176 187 229 282 321 322 331 344 5 7 358 348 340 338 327 322 322 325 322 315 292 284 274 263 257
197 196 195 199 198 201 200 203 196 176 189 208 206 199 218 230 228 205 195 201 237 324 343 360 16 20 13 358 342 331 321 317 314 317 312 310 316 315 298 293 287 277 264
206 207 206 207 208 207 202 204 200 186 202 210 214 219 227 225 206 206 191 179 47 18 357 346 344 333 329 335 333 330 333 338 327 320 322 322 322 322 322 321 315 302 284
210 211 212 214 214 213 207 206 203 203 205 212 214 214 173 159 169 185 187 189 243 323 327 333 340 330 334 350 4 353 349 354 356 353 342 330 322 324 327 328 321 322 316
220 217 214 218 218 216 212 209 206 205 206 210 212 207 185 163 152 173 171 358 322 333 310 297 3 34 15 10 7 3 358 357 359 356 354 350 347 353 350 355 358 16 28
229 231 225 222 221 216 215 212 209 207 207 208 202 193 186 173 171 183 123 9 45 351 303 62 38 21 6 8 2 353 348 345 348 7 24 36 46 38 36 40 42 29 27
239 240 232 226 223 216 212 210 209 206 208 201 196 195 201 199 195 169 136 103 76 90 64 32 8 360 354 359 356 349 347 348 10 46 55 60 55 55 50 40 34 28 30
255 252 242 227 221 214 209 207 205 202 201 195 200 199 193 194 190 172 142 105 91 54 26 16 2 1 2 1 357 357 6 31 58 66 65 59 49 54 41 36 28 23 22
267 269 242 228 217 210 204 200 198 195 194 195 181 175 179 178 164 144 142 85 65 44 24 19 9 4 2 5 1 360 360 78 68 69 55 48 36 32 29 30 26 22 13
260 249 233 220 211 203 197 194 191 188 180 169 167 165 156 150 146 136 105 81 59 40 27 14 9 9 10 5 354 353 350 171 79 59 44 39 28 25 21 15 16 14 10
240 230 212 205 200 191 184 182 178 174 171 163 161 155 150 150 141 132 109 86 58 40 34 25 19 15 9 359 351 345 338 190 148 44 23 19 15 10 2 3 0 353 352
217 204 197 190 185 178 174 168 162 159 156 155 153 151 146 146 134 122 103 83 58 43 41 31 24 26 17 358 352 344 334 212 231 299 8 351 351 352 351 343 344 345 342
188 177 181 179 177 174 167 155 152 145 146 146 143 142 140 136 128 116 99 78 55 45 46 36 30 20 19 10 360 347 342 293 280 274 330 319 326 338 339 334 335 336 333
187 177 179 179 175 172 166 161 157 151 146 144 142 139 137 135 126 114 93 74 63 55 47 38 31 27 22 22 10 337 357 335 6 308 320 327 318 319 323 328 330 331 326
195 180 179 176 172 172 166 160 151 144 141 139 143 138 134 135 125 108 93 78 65 52 50 43 35 31 18 19 34 35 351 310 327 310 297 304 316 315 318 324 326 328 323
191 185 182 179 176 172 171 164 161 155 148 158 150 141 137 133 122 109 91 74 63 58 52 41 31 30 27 22 10 2 345 291 307 320 301 307 312 316 316 318 322 314 309
184 179 181 178 177 175 174 170 168 164 159 155 151 145 141 133 121 106 87 75 67 56 47 34 23 19 17 12 5 344 330 312 281 261 302 304 312 311 311 306 308 313 311
177 176 177 174 178 177 176 176 175 167 158 155 154 149 143 134 121 103 90 75 63 51 37 23 12 2 359 353 347 342 332 308 291 292 286 306 300 311 308 302 311 309 309